Flag Weather past 2 weeks in Long Beach, California, U.S.A.

Now
65 °F

Clear.


Feels Like: 65 °F
Forecast: 55 / 82 °F
Wind: No wind

Location: Long Beach Airport

Current Time: Nov 26, 2014 at 8:57:03 PM

Latest Report: Nov 26, 2014 at 7:53 PM


Visibility: 10 mi

Pressure: 30.13 "Hg

Humidity: 36%

Dew point: 37 °F

Location of Long BeachLocation

Historic Weather in Long Beach — Graph

°F

Long Beach temperature yesterday

Maximum temperature yesterday: 81 °F (at 1:53 PM)
Minimum temperature yesterday: 52 °F (at 6:53 AM)
Average temperature yesterday: 65 °F

Past Weeks' High & Low Weather Summary

 TemperatureHumidityPressure
High86 °F (Nov 26, 1:53 PM)96% (Nov 14, 2:53 AM)30.39 "Hg (Nov 14, 2:53 AM)
Low50 °F (Nov 26, 6:53 AM)6% (Nov 16, 3:53 PM)29.92 "Hg (Nov 11, 6:53 PM)
Average63 °F56%30.08 "Hg
* Reported Nov 11 6:53 PM — Nov 26 6:53 PM, Long Beach, Weather by CustomWeather, © 2014

Note: Actual official high and low records may vary slightly from our data, if they occured in-between our weather recording intervals... More about our weather records

Advertising

Long Beach weather history for previous 24 hours

 ConditionsComfort  
Time TempWeatherWind HumidityBarometerVisibility
6:53 PM
Nov 26
67 °FClear.6 mph36%30.12 "Hg10 mi
5:53 PM71 °FClear.7 mph21%30.11 "Hg10 mi
4:53 PM74 °FClear.7 mph22%30.11 "Hg10 mi
3:53 PM81 °FSunny.8 mph16%30.11 "Hg10 mi
2:53 PM85 °FSunny.9 mph16%30.12 "Hg10 mi
1:53 PM86 °FSunny.6 mph9%30.13 "Hg10 mi
12:53 PM85 °FSunny.6 mph9%30.14 "Hg10 mi
11:53 AM81 °FSunny.No wind13%30.17 "Hg10 mi
10:53 AM76 °FSunny.3 mph17%30.21 "Hg10 mi
9:53 AM70 °FSunny.6 mph21%30.23 "Hg10 mi
8:53 AM64 °FSunny.No wind32%30.24 "Hg10 mi
7:53 AM56 °FSunny.No wind40%30.23 "Hg10 mi
6:53 AM50 °FSunny.No wind50%30.22 "Hg10 mi
5:53 AM51 °FClear.No wind46%30.21 "Hg10 mi
4:53 AM51 °FClear.No wind52%30.21 "Hg10 mi
3:53 AM52 °FClear.No wind53%30.21 "Hg10 mi
2:53 AM53 °FClear.No wind45%30.23 "Hg10 mi
1:53 AM55 °FClear.3 mph51%30.23 "Hg10 mi
12:53 AM54 °FClear.No wind62%30.24 "Hg10 mi
11:53 PM
Nov 25
56 °FClear.No wind51%30.26 "Hg10 mi
10:53 PM56 °FClear.No wind49%30.27 "Hg10 mi
9:53 PM59 °FClear.No wind44%30.27 "Hg10 mi
8:53 PM61 °FClear.No wind41%30.28 "Hg10 mi
Weather by CustomWeather, © 2014

See weather overviewHow to use our weather pages